Overview Statistics Trail Chart Weather Telemetry Raw packets
 

This is the latest recevied weather packets stored in our database for station/object KD7CIH. If no packets are shown the sender has not sent any weather packets the latest 10 day(s).

<< 107 108 109 110 111 112 113 >>
Time Temp. Humidity Pressure Rain* Wind** Luminosity Snow
1787892634 22.78° C 36% 1018.2 hPa 0 mm - - -
1787892333 23.33° C 33% 1018.1 hPa 0 mm - - -
1787892035 23.33° C 29% 1018 hPa 0 mm - - -
1787891862 22.78° C 34% 1018.1 hPa 0 mm - - -
1787891433 22.78° C 33% 1018.1 hPa 0 mm - - -
1787891133 22.22° C 36% 1018.2 hPa 0 mm - - -
1787890835 21.67° C 37% 1018.3 hPa 0 mm - - -
1787890534 21.67° C 38% 1018.4 hPa 0 mm - - -
1787890233 21.67° C 38% 1018.4 hPa 0 mm - - -
1787890064 21.67° C 38% 1018.4 hPa 0 mm - - -
1787889634 21.67° C 38% 1018.7 hPa 0 mm - - -
1787889333 21.67° C 38% 1018.7 hPa 0 mm - - -
1787889163 21.67° C 38% 1018.7 hPa 0 mm - - -
1787888861 21.67° C 38% 1018.8 hPa 0 mm - - -
1787888434 21.67° C 38% 1019 hPa 0 mm - - -
1787888133 21.67° C 38% 1018.9 hPa 0 mm - - -
1787887836 21.67° C 37% 1018.8 hPa 0 mm - - -
1787887533 22.22° C 36% 1019 hPa 0 mm - - -
1787887234 22.22° C 35% 1019 hPa 0 mm - - -
1787886933 22.22° C 34% 1019 hPa 0 mm - - -
1787886635 22.78° C 33% 1019 hPa 0 mm - - -
1787886334 22.78° C 33% 1018.8 hPa 0 mm - - -
1787886033 23.33° C 32% 1018.9 hPa 0 mm - - -
1787885734 23.33° C 31% 1018.9 hPa 0 mm - - -
1787885435 23.33° C 30% 1018.8 hPa 0 mm - - -

* Rain latest hour (hover to see other rain measurements)
** Current wind speed in m/s (hover to see current wind gust speed)